Regional Weather Roundup
Issued by NWS

Home | Current Version | Previous Version | Text Only | Print | Product List | Glossary On
Versions: 1 2 3 4 5 6 7 8 9 10 11 12 13 14 15 16 17 18 19 20 21 22 23 24 25 26 27 28 29 30 31 32 33 34 35 36 37 38 39 40 41 42 43 44 45 46 47 48 49 50
000
ASUS45 KABQ 052010
RWRNM
WEATHER ROUNDUP FOR NEW MEXICO
NATIONAL WEATHER SERVICE ALBUQUERQUE NM
200 PM MDT TUE MAY 05 2015

NOTE: "FAIR" MEANS FEW OR NO CLOUDS BELOW 12,000 FEET AGL WITH NO
       SIGNIFICANT WEATHER OR OBSTRUCTIONS TO VISION.

      THIS PRODUCT IS RELEASED AS TWO VERSIONS.  ONE VERSION NEAR
      THE TOP OF THE HOUR CONTAINING PRELIMINARY DATA FROM ALBUQUERQUE
      AND OTHER STATIONS.  A FINAL VERSION WITH ADDITIONAL DATA IS
      ISSUED ABOUT 10 MINUTES AFTER THE HOUR.

NMZ501-503-504-510>518-052100-
NORTHWEST PLATEAU/NORTHCENTRAL MOUNTAINS

CITY           SKY/WX    TMP DP  RH WIND       PRES   REMARKS
FARMINGTON     CLOUDY    52  46  80 CALM      29.91F
LOS ALAMOS     PTSUNNY   53  38  55 SW9       29.95F
SANTA FE       PTSUNNY   54  42  64 E10       29.92F
TAOS           PTSUNNY   52  36  54 SW15G22   29.94S
ANGEL FIRE     HVY RAIN  43  37  78 SW17G26   29.97R

$$
NMZ402-403-502-505>509-052100-
WESTCENTRAL MOUNTAINS/SOUTHWEST MOUNTAINS

CITY           SKY/WX    TMP DP  RH WIND       PRES   REMARKS
GALLUP         PTSUNNY   54  45  71 SW12G21   29.96F
GRANTS         CLOUDY    56  38  51 W20G33    29.97S
SILVER CITY      N/A     64  32  29 W14G24    30.00F

$$
NMZ407-409-411-412-052100-
SOUTHERN DESERTS

CITY           SKY/WX    TMP DP  RH WIND       PRES   REMARKS
LORDSBURG      CLOUDY    70  37  30 W18G24    29.96F
DEMING         MOSUNNY   72  34  24 W21G28    29.95F
LAS CRUCES     MOSUNNY   72  31  21 W22G31    29.95F
HOLLOMAN AFB   MOSUNNY   74  36  25 W14G24    29.89F
ALAMOGORDO     MOSUNNY   72  32  23 W13G25    29.92F
T OR C         PTSUNNY   68  33  27 W9        29.89F

$$
NMZ519>523-052100-
CENTRAL VALLEYS/CENTRAL HIGHLANDS

CITY           SKY/WX    TMP DP  RH WIND       PRES   REMARKS
ALBUQUERQUE    LGT RAIN  57  43  59 W9        29.93S
DOUBLE EAGLE   PTSUNNY   59  45  58 W13       29.94F
MORIARTY ARPT  MOCLDY    59  39  48 W15G23    29.94F
CLINES CORNERS PTSUNNY   58  37  45 W23G35    29.93F
BELEN          LGT RAIN  57  44  62 S21       29.93S
SOCORRO        PTSUNNY   60  48  63 NE9       29.90F

$$
NMZ524>526-539-540-052100-
SOUTHCENTRAL MOUNTAINS

CITY           SKY/WX    TMP DP  RH WIND       PRES   REMARKS
RUIDOSO        MOSUNNY   59  36  41 SW30G39   29.99F

$$
NMZ527>531-052100-
NORTHEAST HIGHLANDS/NORTHEAST PLAINS

CITY           SKY/WX    TMP DP  RH WIND       PRES   REMARKS
LAS VEGAS      PTSUNNY   59  40  49 SW16      29.90F
RATON          PTSUNNY   59  46  62 S14G21    29.84F
CLAYTON        LGT RAIN  56  52  86 SW9       29.85F

$$
NMZ532>537-052100-
EASTCENTRAL PLAINS

CITY           SKY/WX    TMP DP  RH WIND       PRES   REMARKS
TUCUMCARI      TSTM      58  51  78 E3        29.82F
CANNON AFB     PTSUNNY   67  52  59 S13G20    29.86F
CLOVIS AIRPORT MOSUNNY   66  50  55 SW10      29.87F

$$
NMZ028-029-538-052100-
SOUTHEAST PLAINS

CITY           SKY/WX    TMP DP  RH WIND       PRES   REMARKS
ROSWELL        LGT RAIN  70  46  42 NE5       29.83F
ARTESIA        MOSUNNY   77  39  25 SW17G28   29.85F
CARLSBAD       MOSUNNY   76  43  30 SW12      29.85F
HOBBS          MOSUNNY   73  54  49 SW14G21   29.89F


$$


USA.gov is the U.S. government's official web portal to all federal, state and local government web resources and services.